Weather Roundup
Issued by NWS Chicago, IL

Home | Current Version | Previous Version | Graphics & Text | Print | Product List | Glossary On
Versions: 1 2 3 4 5 6 7 8 9 10 11 12 13 14 15 16 17 18 19 20 21 22 23 24 25 26 27 28 29 30 31 32 33 34 35 36 37 38 39 40 41 42 43 44 45 46 47 48 49 50
000
NZUS59 KLOT 310703
HRRLOT

CHICAGO AREA WEATHER ROUNDUP
NATIONAL WEATHER SERVICE CHICAGO/ROMEOVILLE IL
200 AM CDT SUN JUL 31 2016

NOTE: "FAIR" INDICATES FEW OR NO CLOUDS BELOW 12,000 FEET WITH NO
SIGNIFICANT WEATHER AND/OR OBSTRUCTIONS TO VISIBILITY.

* THESE STATIONS ARE NOT UNDER NWS QUALITY CONTROL. THEY ALSO MAY NOT
  REPORT WEATHER SUCH AS PRECIPITATION OR FOG.

ILZ005-006-012>014-019>023-310800-
NORTHEAST ILLINOIS

CITY           SKY/WX    TMP DP  RH WIND       PRES   REMARKS
OHARE          MOCLDY    67  64  90 NW7       30.00S
MIDWAY         PTCLDY    71  65  81 NE5       29.99F
AURORA         CLEAR     63  61  93 CALM      30.02S FOG
LANSING*       CLEAR     67  64  90 CALM      29.99F
WAUKEGAN       MOCLDY    65  63  93 NW3       30.01S
DUPAGE AIRPORT CLEAR     64  60  87 CALM      30.01S
WHEELING       CLEAR     67  63  87 NW6       30.02S
KANKAKEE*      CLEAR     65  64  95 NW3       30.00F
MORRIS*        CLEAR     65  63  94 CALM      29.99F
NORTHERLY ISL    N/A     71  65  81 NE6         N/A
$$

WIZ051-052-058>065-066-070>072-310800-
SOUTHEAST WISCONSIN

CITY           SKY/WX    TMP DP  RH WIND       PRES   REMARKS
MILWAUKEE      PTCLDY    68  65  90 N5        30.02S
KENOSHA*       MOCLDY    65  62  90 N5        30.02S
RACINE*        MOCLDY    66  63  90 CALM      30.03S
BURLINGTON     PTCLDY    58  57  98 CALM      30.03R
WAUKESHA       CLEAR     59  57  94 CALM      30.04S
$$

INZ001>003-010>013-019-020-310800-
NORTHWEST INDIANA

CITY           SKY/WX    TMP DP  RH WIND       PRES   REMARKS
GARY*          CLEAR     66  66 100 CALM      29.99F FOG
MICHIGAN CITY* NOT AVBL
RENSSELAER*    NOT AVBL
VALPARAISO     CLEAR     65  64  97 CALM      29.99F
$$

LMZ740>746-310800-
SOUTHERN LAKE MICHIGAN

STATION/POSITION TIME  SKY/WX   TEMP WIND        PRES    VSBY
                                AIR  DIR/SP/G
                 (UTC)          (F)  (DEG/KT/KT) (MB)    (MI)
HARRISON CRIB    0600            73   80/ 10/ 11   N/A
BURNHAM HARBOR   0700            71   60/  5/  8   N/A
CALUMET HARBOR   0600            72   50/  6/  7 1015.3F
BURNS HARBOR     0602            66   60/  3/  5 1016.3S
MICHIGAN CITY    0600            64   40/  5/  6   N/A
$$

ABBREVIATIONS USED IN REMARKS
   TC - TEMPERATURE IN CELSIUS
  WCI - WIND CHILL INDEX
   HX - HEAT INDEX
  VSB - VISIBILITY
$$




USA.gov is the U.S. government's official web portal to all federal, state and local government web resources and services.